Home > Weather > Gera > Past weeks

Flag for Germany Weather for the Past 2 Weeks in Gera, Thuringia, Germany

Now
36 °F

Partly sunny.


Feels Like: 31 °F
Forecast: 28 / 43 °F
Wind: 6 mph from South

Location: Altenburg Nobitz

Current Time: Feb 12, 2016 at 9:44:17 AM

Latest Report: Feb 12, 2016 at 8:50 AM


Visibility: N/A

Pressure: 29.65 "Hg

Humidity: 87%

Dew point: 32 °F

Location of GeraLocation

Historic Weather in Gera — Graph

°F

Gera Temperature Yesterday

Maximum temperature yesterday: 45 °F (at 1:20 PM)
Minimum temperature yesterday: 37 °F (at 7:50 AM)
Average temperature yesterday: 40 °F

High & Low Weather Summary for the Past Weeks

 TemperatureHumidityPressure
High55 °F (Feb 1, 2:50 PM)100% (Feb 1, 7:50 AM)30.30 "Hg (Feb 1, 7:50 AM)
Low32 °F (Feb 12, 7:50 AM)57% (Jan 28, 4:20 PM)29.12 "Hg (Feb 9, 5:50 PM)
Average46 °F75%29.86 "Hg
* Reported Jan 28 8:20 AM — Feb 12 8:20 AM, Gera, Weather by CustomWeather, © 2016

Note: Actual official high and low records may vary slightly from our data, if they occured in-between our weather recording intervals... More about our weather records

Advertising

Gera Weather History for the Previous 24 Hours

 ConditionsComfort  
Time TempWeatherWind HumidityBarometerVisibility
8:20 AM
Fri, Feb 12
34 °FSunny.6 mph93%29.65 "Hg10 mi
7:50 AM32 °FSunny.5 mph100%29.65 "Hg10 mi
5:50 PM
Thu, Feb 11
39 °FPassing clouds.8 mph70%29.65 "HgN/A
5:20 PM39 °FPartly cloudy.12 mph70%29.65 "HgN/A
4:50 PM41 °FPartly sunny.10 mph66%29.65 "HgN/A
4:20 PM43 °FPartly sunny.14 mph61%29.62 "HgN/A
3:50 PM45 °FPartly sunny.13 mph61%29.62 "HgN/A
3:20 PM43 °FScattered clouds.10 mph71%29.62 "HgN/A
2:50 PM41 °FScattered clouds.7 mph81%29.62 "HgN/A
2:20 PM39 °FSprinkles. Partly sunny.13 mph87%29.62 "HgN/A
1:50 PM39 °FMixture of precip. Partly sunny.18 mph81%29.62 "HgN/A
1:20 PM45 °FPartly sunny.17 mph57%29.62 "HgN/A
12:50 PM43 °FPartly sunny.17 mph66%29.62 "HgN/A
12:20 PM41 °FPartly sunny.9 mph70%29.62 "HgN/A
11:50 AM41 °FPartly sunny.13 mph66%29.62 "HgN/A
11:20 AM41 °FBroken clouds.17 mph66%29.65 "HgN/A
10:50 AM41 °FPartly sunny.14 mph70%29.62 "HgN/A
10:20 AM41 °FSunny.9 mph70%29.62 "Hg10 mi
9:50 AM39 °FSunny.10 mph75%29.62 "Hg10 mi
9:20 AM37 °FSunny.10 mph81%29.62 "Hg10 mi
Weather by CustomWeather, © 2016

See weather overviewHow to use our weather pages